Wind_Speed
69 71 64 51 58 52 53 50 54 53 46 46 41 43 36 40 39 38 43 38 36 40 40 40 47 38 42 37 34 34 35 35 27 27 29 31 31 33 38 42 45 46 46 44
75 71 48 59 54 55 59 60 57 49 48 45 36 41 42 39 38 40 38 38 36 38 40 45 42 37 38 30 32 31 34 28 27 27 29 32 34 36 40 41 43 43 42 44
70 55 60 59 59 62 57 56 51 48 46 44 35 44 39 35 39 40 39 41 36 38 38 39 35 40 32 25 25 29 27 25 27 28 31 34 34 35 35 37 39 38 38 40
67 59 62 64 63 62 59 52 51 48 47 52 39 49 34 33 35 36 38 33 33 32 29 28 31 32 24 23 25 24 24 24 27 30 32 34 34 33 33 34 36 37 32 33
60 61 63 68 57 61 53 46 48 45 46 43 47 45 19 31 32 36 35 27 28 28 26 25 26 28 20 22 21 22 24 26 29 31 33 31 31 30 30 32 30 32 33 29
63 60 65 62 62 64 56 52 47 44 40 43 34 39 24 25 34 29 26 27 33 29 24 24 29 18 22 19 18 22 25 26 30 30 27 27 25 26 28 26 27 30 28 22
62 65 67 62 64 64 63 57 51 48 48 44 25 38 29 26 29 25 21 26 29 27 23 24 19 17 18 15 18 21 22 26 27 25 25 21 22 26 24 23 25 24 18 16
44 58 64 66 65 62 64 64 62 59 53 46 39 41 31 29 23 17 22 23 19 23 20 14 16 18 15 16 18 20 23 24 23 22 19 20 21 21 22 24 20 18 14 11
37 40 55 61 65 57 51 60 56 51 40 41 33 28 28 26 12 15 18 12 13 9 13 15 17 15 16 17 17 20 21 22 21 17 17 18 19 20 19 19 17 13 10 6
40 38 51 62 58 67 50 48 57 52 46 37 32 19 13 24 18 17 14 16 13 12 13 15 16 15 16 15 17 19 19 20 15 16 15 18 20 17 17 16 11 8 5 4
41 43 34 53 59 60 61 54 57 49 48 46 31 15 18 27 26 20 20 15 13 16 16 14 16 16 13 15 17 16 17 13 13 14 15 19 16 15 13 12 9 7 3 4
36 38 37 44 42 44 55 58 58 60 53 44 31 22 27 24 17 20 22 21 17 16 14 14 13 10 13 15 12 14 12 11 13 13 15 15 14 11 10 8 7 6 3 1
31 34 31 36 46 51 54 55 56 56 41 43 33 24 27 26 21 22 21 25 17 14 13 11 11 12 14 12 13 11 9 11 12 13 13 12 8 10 6 6 5 5 4 3
26 35 35 31 38 47 41 44 50 39 50 38 31 21 27 23 26 24 29 21 18 17 12 11 12 13 12 12 12 8 8 10 11 10 9 8 10 7 5 6 5 4 4 5
18 29 42 44 35 50 44 48 46 46 45 43 33 30 13 24 25 32 22 23 22 14 13 13 14 11 11 10 8 7 8 8 9 6 8 8 10 8 6 4 5 4 4 7
11 20 37 43 37 51 51 55 52 42 38 37 30 34 23 29 30 20 25 23 19 19 18 15 12 10 8 7 7 6 6 5 5 5 7 8 7 6 7 6 5 5 4 6
14 17 24 39 25 26 54 58 52 46 36 40 28 35 33 23 21 25 27 25 23 21 19 14 11 8 7 5 5 4 4 4 4 6 6 7 3 4 2 3 5 6 4 6
12 19 22 38 20 26 40 46 44 41 39 36 23 30 33 37 32 40 41 37 31 24 20 15 9 6 7 4 4 3 2 2 3 4 5 6 3 4 3 4 3 2 4 6
10 19 22 26 23 40 45 50 46 47 52 50 38 41 39 46 39 32 38 31 27 24 18 14 8 6 7 4 3 3 2 1 2 4 7 8 5 4 4 4 3 3 3 4
12 16 25 27 20 41 50 52 53 34 57 64 53 53 46 41 43 34 32 30 27 24 19 16 9 6 8 4 2 3 2 2 3 5 8 10 8 9 4 3 6 6 6 3
4 13 30 35 13 16 60 47 58 48 52 62 63 46 58 50 51 36 29 33 30 26 20 18 12 7 9 6 1 2 3 3 5 6 6 7 8 10 11 6 4 4 9 10
7 12 32 34 19 26 48 37 51 40 51 52 57 52 52 53 40 35 32 34 30 27 22 17 12 8 9 10 4 1 3 3 5 7 7 6 5 6 10 11 11 8 5 8
9 14 19 20 18 10 41 46 61 59 34 47 57 61 52 45 39 35 34 34 30 29 23 18 13 10 8 11 8 3 2 3 3 6 7 5 4 3 6 9 12 14 14 11
8 14 17 20 20 18 37 58 56 58 45 31 45 49 44 46 45 39 38 35 32 31 24 19 16 10 9 9 11 8 3 3 4 4 6 6 4 4 5 7 9 10 14 20
13 9 17 23 28 30 21 47 50 46 48 44 33 37 41 44 46 46 42 37 38 33 27 22 18 12 9 8 10 11 7 4 5 6 6 7 7 8 8 9 11 13 13 16
12 12 14 24 30 31 31 25 28 32 40 37 30 34 42 41 42 49 44 38 38 34 28 24 21 15 12 9 9 10 10 8 5 7 7 7 8 10 11 12 14 16 17 17
Wind_Direction
241 238 240 248 249 254 257 259 259 261 268 271 268 273 275 277 270 278 274 286 281 273 264 264 277 275 275 284 280 275 275 283 286 296 299 300 298 297 297 298 298 299 299 300
240 243 248 242 244 246 247 250 255 260 262 264 259 267 274 281 282 281 280 288 283 273 268 271 278 269 276 269 267 269 273 283 286 292 299 298 294 293 293 298 298 296 300 298
242 245 239 239 239 240 242 246 250 253 255 255 258 264 270 277 278 278 283 280 285 288 281 275 274 263 274 256 261 264 278 278 289 292 296 294 294 298 298 298 298 297 298 301
241 238 237 233 234 238 240 244 248 251 253 255 255 267 270 275 278 283 283 298 298 294 277 266 262 266 261 251 251 269 274 280 286 291 299 296 298 297 299 296 296 298 302 300
239 237 234 232 236 234 236 236 242 245 252 258 253 261 271 269 276 281 294 298 295 288 274 264 256 260 247 243 260 274 277 282 289 299 301 294 296 297 293 295 299 304 308 310
231 231 230 231 229 228 228 230 232 236 243 251 249 258 264 275 274 288 294 298 288 283 265 252 248 257 239 246 267 273 278 285 296 301 296 297 296 294 294 298 305 305 307 306
230 225 227 224 223 225 225 223 225 229 231 246 248 255 273 268 283 287 293 297 285 268 251 256 251 228 235 261 270 272 283 297 299 294 298 295 289 293 297 300 309 308 310 322
236 228 221 225 224 224 222 224 225 228 238 248 247 255 280 287 299 284 290 286 267 261 263 245 223 226 252 258 265 285 293 297 293 297 294 290 287 294 295 307 308 309 319 327
221 225 220 217 219 209 214 209 225 225 234 244 246 275 291 301 296 278 287 251 246 248 230 229 229 244 248 258 284 291 295 293 294 292 291 288 294 294 297 301 298 304 315 335
225 223 216 211 215 216 199 216 211 217 216 229 234 260 270 266 286 286 276 236 240 238 236 231 239 242 251 281 294 294 293 291 290 292 286 294 298 294 298 293 295 293 301 2
224 225 206 209 202 212 202 200 210 214 218 217 219 211 243 262 267 288 243 233 244 236 231 227 230 244 280 298 298 291 289 286 292 292 293 298 294 297 289 284 290 281 269 13
225 218 203 206 198 209 204 207 202 204 210 213 216 216 243 248 274 273 243 231 234 232 222 228 238 273 300 307 291 287 282 290 297 293 301 296 300 296 274 284 287 279 243 69
225 210 199 206 196 191 206 204 199 202 200 215 195 204 245 242 250 258 225 242 234 227 209 228 259 287 300 302 285 279 281 299 299 296 303 303 304 284 273 276 291 270 233 166
226 213 209 199 190 189 191 213 183 194 201 191 192 219 236 241 239 222 224 229 234 223 222 246 271 284 294 293 276 272 286 297 304 303 299 305 320 268 272 265 275 278 236 164
224 209 219 210 186 189 189 181 189 188 200 183 170 222 198 222 224 219 220 228 232 222 234 250 265 281 275 273 264 267 286 308 308 308 312 319 318 283 269 260 248 261 241 187
245 221 224 223 185 185 197 179 183 183 198 174 169 219 192 202 233 238 219 223 218 224 239 250 264 265 260 250 242 264 297 301 306 316 324 332 325 300 255 253 240 234 220 213
244 271 231 210 205 184 183 176 174 179 185 168 188 197 224 214 192 208 208 214 220 225 239 249 261 241 215 222 235 253 302 270 304 323 337 353 327 332 341 293 240 209 209 204
219 223 218 205 168 163 169 163 166 176 180 176 197 194 210 214 193 199 202 207 205 219 234 248 246 224 203 213 231 235 275 236 346 350 12 16 22 358 41 56 147 180 202 185
274 219 200 207 156 162 162 170 172 176 178 190 170 201 190 202 212 210 205 208 222 230 232 240 237 200 198 212 232 220 229 154 35 26 36 53 49 51 45 36 15 311 307 254
243 215 203 193 178 162 185 179 172 178 186 191 194 198 198 200 212 204 200 205 218 226 234 245 237 198 198 200 222 207 203 142 96 71 69 79 71 69 60 30 59 60 42 58
245 206 205 201 169 147 173 189 175 173 195 189 199 192 195 200 214 202 203 204 212 221 228 244 230 215 198 196 188 209 178 152 121 107 96 89 75 73 71 67 52 45 58 57
211 208 200 212 231 142 182 185 184 175 201 202 195 198 201 205 206 203 211 207 207 218 224 235 220 222 203 200 191 214 170 173 140 129 119 109 85 73 72 66 64 74 63 51
208 196 216 229 233 231 182 181 185 195 163 191 199 207 206 200 199 203 209 209 207 211 219 216 210 214 208 205 200 197 168 177 173 142 134 127 96 84 80 79 74 70 66 90
201 203 215 220 190 182 175 183 196 200 204 197 200 203 202 203 205 203 207 209 207 208 212 206 203 195 207 208 205 204 181 169 190 175 144 137 122 122 112 94 92 90 86 85
203 200 213 213 225 226 192 186 199 193 198 212 208 201 201 201 204 203 205 206 206 206 213 205 197 188 209 201 213 209 204 197 185 196 175 149 140 133 127 121 114 111 109 106
204 212 209 216 217 220 228 156 178 185 191 193 198 200 200 204 204 203 205 206 209 215 214 214 202 190 210 210 218 216 214 214 200 193 197 174 155 142 135 126 122 122 122 115
Height
5708 5708 5723 5739 5742 5751 5754 5756 5755 5760 5770 5771 5769 5771 5778 5777 5776 5776 5775 5777 5777 5775 5773 5772 5776 5777 5776 5780 5777 5777 5776 5773 5771 5770 5770 5767 5765 5764 5761 5758 5754 5751 5745 5739
5686 5697 5727 5727 5734 5739 5739 5740 5745 5756 5761 5765 5763 5762 5766 5769 5768 5767 5768 5767 5766 5765 5764 5765 5767 5767 5769 5769 5768 5769 5769 5767 5765 5765 5763 5761 5759 5758 5755 5751 5747 5743 5738 5731
5667 5703 5704 5714 5719 5718 5728 5734 5743 5747 5753 5753 5754 5751 5758 5762 5760 5760 5760 5758 5759 5759 5758 5759 5758 5755 5761 5760 5762 5763 5763 5762 5760 5759 5758 5755 5754 5751 5749 5744 5739 5736 5731 5724
5657 5684 5688 5692 5701 5711 5718 5730 5735 5738 5742 5740 5749 5740 5750 5753 5752 5752 5750 5753 5751 5749 5748 5749 5749 5749 5754 5754 5755 5757 5757 5757 5756 5755 5752 5750 5748 5744 5742 5737 5732 5727 5725 5719
5664 5667 5665 5673 5696 5698 5713 5722 5724 5730 5730 5732 5737 5739 5744 5746 5746 5745 5746 5747 5745 5742 5741 5741 5741 5743 5748 5749 5750 5752 5752 5752 5751 5749 5747 5744 5742 5739 5736 5731 5727 5721 5716 5711
5644 5645 5643 5668 5677 5681 5700 5709 5714 5720 5723 5720 5733 5733 5734 5742 5738 5741 5741 5739 5737 5736 5734 5735 5734 5740 5743 5744 5746 5747 5747 5747 5746 5743 5741 5739 5736 5734 5731 5727 5722 5717 5712 5708
5621 5619 5633 5648 5660 5672 5683 5694 5702 5708 5709 5714 5731 5724 5728 5735 5734 5734 5735 5733 5731 5729 5729 5729 5734 5737 5739 5741 5742 5743 5744 5742 5740 5738 5736 5735 5732 5729 5725 5722 5718 5713 5709 5705
5597 5604 5624 5642 5650 5661 5669 5680 5688 5696 5705 5714 5721 5718 5726 5726 5727 5729 5729 5727 5726 5725 5725 5728 5731 5734 5736 5738 5739 5740 5739 5737 5735 5734 5732 5730 5728 5725 5721 5718 5715 5711 5708 5704
5584 5593 5611 5621 5635 5643 5658 5664 5688 5694 5702 5707 5714 5715 5718 5720 5723 5723 5723 5724 5723 5723 5725 5727 5730 5732 5734 5735 5736 5735 5734 5733 5732 5730 5729 5726 5724 5722 5718 5715 5713 5709 5706 5704
5581 5583 5592 5604 5619 5631 5641 5663 5673 5678 5690 5699 5709 5716 5722 5715 5719 5720 5720 5721 5722 5722 5724 5726 5729 5730 5731 5732 5732 5731 5730 5730 5729 5727 5725 5723 5720 5717 5715 5713 5710 5708 5705 5703
5571 5572 5587 5594 5596 5620 5631 5641 5657 5677 5684 5692 5703 5712 5719 5715 5713 5718 5716 5718 5719 5720 5722 5724 5726 5727 5729 5729 5728 5728 5727 5727 5726 5724 5722 5719 5716 5715 5713 5711 5708 5707 5705 5703
5561 5566 5574 5582 5597 5614 5624 5638 5649 5659 5674 5685 5699 5708 5709 5710 5712 5713 5714 5715 5717 5718 5720 5722 5723 5725 5726 5726 5725 5725 5725 5724 5723 5721 5720 5716 5715 5712 5711 5709 5707 5706 5704 5704
5557 5564 5570 5577 5587 5597 5610 5625 5640 5655 5674 5681 5692 5700 5702 5707 5709 5710 5708 5711 5715 5716 5718 5720 5721 5723 5723 5723 5723 5723 5723 5722 5720 5718 5717 5715 5713 5711 5709 5708 5707 5706 5704 5704
5554 5560 5566 5573 5586 5592 5606 5622 5635 5651 5663 5674 5687 5700 5696 5702 5705 5706 5705 5710 5713 5715 5716 5718 5720 5721 5721 5722 5722 5721 5721 5720 5718 5716 5715 5714 5711 5710 5709 5708 5706 5705 5705 5704
5553 5558 5558 5561 5569 5585 5595 5606 5631 5642 5658 5669 5683 5691 5694 5696 5699 5698 5705 5708 5711 5712 5714 5716 5718 5718 5719 5720 5720 5720 5719 5718 5716 5715 5714 5712 5710 5709 5708 5707 5705 5705 5705 5705
5550 5552 5550 5555 5563 5577 5589 5600 5618 5640 5657 5671 5680 5688 5691 5686 5691 5698 5703 5705 5708 5710 5712 5714 5716 5716 5717 5718 5718 5718 5718 5717 5716 5715 5714 5711 5709 5708 5707 5706 5705 5705 5705 5706
5549 5550 5550 5556 5562 5573 5582 5599 5615 5636 5654 5668 5676 5687 5676 5684 5685 5692 5697 5701 5705 5708 5710 5713 5714 5714 5715 5717 5717 5717 5717 5717 5716 5714 5713 5710 5709 5708 5706 5706 5705 5705 5706 5706
5548 5549 5553 5557 5563 5574 5598 5611 5623 5639 5651 5667 5672 5676 5675 5677 5677 5678 5687 5693 5700 5705 5708 5711 5713 5713 5715 5716 5717 5717 5716 5717 5717 5714 5712 5710 5708 5708 5707 5707 5706 5706 5706 5707
5546 5548 5555 5559 5570 5584 5592 5599 5611 5631 5641 5644 5650 5649 5653 5660 5671 5680 5687 5695 5700 5704 5708 5710 5712 5713 5715 5716 5717 5717 5717 5717 5716 5714 5712 5710 5709 5709 5709 5708 5708 5707 5707 5706
5545 5549 5554 5558 5570 5581 5586 5593 5599 5607 5624 5631 5631 5633 5649 5660 5668 5678 5686 5693 5698 5703 5708 5710 5710 5712 5715 5716 5717 5717 5717 5717 5717 5715 5714 5714 5713 5712 5711 5711 5709 5708 5707 5707
5546 5549 5553 5557 5564 5567 5585 5589 5598 5603 5612 5616 5621 5637 5650 5658 5660 5677 5682 5690 5696 5701 5706 5709 5710 5712 5714 5716 5717 5718 5718 5717 5717 5717 5717 5716 5716 5715 5714 5713 5712 5711 5710 5709
5551 5553 5558 5560 5564 5569 5583 5591 5601 5606 5612 5618 5628 5638 5649 5655 5665 5674 5682 5687 5694 5700 5705 5708 5709 5711 5713 5716 5718 5719 5718 5718 5718 5719 5719 5719 5719 5718 5718 5716 5715 5714 5713 5712
5551 5555 5558 5561 5569 5573 5583 5587 5595 5598 5603 5617 5629 5637 5645 5655 5663 5671 5678 5686 5692 5698 5703 5707 5708 5710 5713 5715 5717 5719 5719 5719 5720 5720 5721 5721 5721 5721 5721 5720 5720 5719 5717 5715
5554 5554 5558 5566 5569 5573 5577 5585 5591 5605 5614 5618 5625 5634 5642 5649 5657 5667 5674 5682 5690 5696 5701 5705 5707 5709 5712 5714 5716 5719 5720 5720 5721 5722 5722 5723 5723 5724 5724 5724 5724 5724 5723 5722
5557 5559 5559 5562 5566 5570 5574 5586 5594 5600 5609 5618 5625 5632 5638 5645 5653 5662 5670 5678 5685 5692 5698 5703 5706 5708 5711 5713 5715 5718 5720 5721 5721 5723 5723 5724 5725 5726 5727 5727 5727 5728 5728 5728
5560 5561 5564 5565 5568 5572 5575 5581 5589 5598 5604 5614 5621 5627 5634 5641 5648 5659 5667 5675 5684 5690 5695 5700 5704 5707 5709 5712 5714 5716 5719 5720 5721 5723 5724 5725 5727 5728 5729 5730 5731 5731 5732 5733